Powrót do katalogu

STARLINK-4691

AktywnyŁącznośćVLEO
NORAD 53588·PAYLOAD·🇺🇸 United States

Wystrzelony Aug 28, 2022 z Cape Canaveral Space Force Station

Loading…

Następne Przeloty (najbliższe 24 godziny)

TLE

ŚwieżeSource: CelesTrak SupGP

Epoka: Sep 14, 2026, 21:04 UTC

1 53588C 22104A   26257.87826389 -.00058566  00000+0 -16760-2 0  2571
2 53588  53.1600 110.7158 0001376  84.4679 347.6674 15.35421760    16

Śledź STARLINK-4691 w czasie rzeczywistym z AllMySat

Download on the App Store